Time,TemperatureF,DewpointF,PressureIn,WindDirection,WindDirectionDegrees,WindSpeedMPH,WindSpeedGustMPH,Humidity,HourlyPrecipIn,Conditions,Clouds,dailyrainin,SoftwareType,DateUTC
2013-03-13 00:04:00,29.3,-99.9,28.82,North,0,-999.0,-999.0,-999,-99.99,,,-99.99,,2013-03-13 00:04:00,
2013-03-13 00:10:00,29.4,-99.9,28.83,East,90,6.0,-999.0,-999,-99.99,,,-99.99,,2013-03-13 00:10:00,
2013-03-13 00:17:00,29.5,-99.9,28.82,SE,135,-999.0,-999.0,-999,-99.99,,,-99.99,,2013-03-13 00:17:00,
2013-03-13 00:23:00,29.5,-99.9,28.82,East,90,3.0,-999.0,-999,-99.99,,,-99.99,,2013-03-13 00:23:00,
2013-03-13 00:30:00,29.3,-99.9,28.82,SE,135,2.0,-999.0,-999,-99.99,,,-99.99,,2013-03-13 00:30:00,
2013-03-13 00:38:00,28.7,-99.9,28.82,East,90,2.0,-999.0,-999,-99.99,,,-99.99,,2013-03-13 00:38:00,
2013-03-13 00:44:00,28.5,-99.9,28.82,East,90,3.0,-999.0,-999,-99.99,,,-99.99,,2013-03-13 00:44:00,
2013-03-13 00:51:00,28.4,-99.9,28.82,ESE,112,4.0,-999.0,-999,-99.99,,,-99.99,,2013-03-13 00:51:00,
2013-03-13 00:57:00,28.4,-99.9,28.82,ENE,67,4.0,-999.0,-999,-99.99,,,-99.99,,2013-03-13 00:57:00,
2013-03-13 01:04:00,28.5,-99.9,28.82,ESE,112,-999.0,-999.0,-999,-99.99,,,-99.99,,2013-03-13 01:04:00,
2013-03-13 01:10:00,28.9,-99.9,28.82,NE,45,7.0,-999.0,-999,-99.99,,,-99.99,,2013-03-13 01:10:00,
2013-03-13 01:18:00,29.4,-99.9,28.82,ENE,67,8.0,-999.0,-999,-99.99,,,-99.99,,2013-03-13 01:18:00,
2013-03-13 01:24:00,29.5,-99.9,28.82,ENE,67,7.0,-999.0,-999,-99.99,,,-99.99,,2013-03-13 01:24:00,
2013-03-13 01:31:00,29.5,-99.9,28.82,North,0,8.0,-999.0,-999,-99.99,,,-99.99,,2013-03-13 01:31:00,
2013-03-13 01:39:00,29.3,-99.9,28.82,North,0,4.0,-999.0,-999,-99.99,,,-99.99,,2013-03-13 01:39:00,
2013-03-13 01:45:00,29.0,-99.9,28.82,ENE,67,2.0,-999.0,-999,-99.99,,,-99.99,,2013-03-13 01:45:00,
2013-03-13 01:52:00,28.3,-99.9,28.82,ESE,112,3.0,-999.0,-999,-99.99,,,-99.99,,2013-03-13 01:52:00,
2013-03-13 01:58:00,28.0,-99.9,28.82,SE,135,2.0,-999.0,-999,-99.99,,,-99.99,,2013-03-13 01:58:00,
2013-03-13 02:04:00,27.6,-99.9,28.82,ESE,112,3.0,-999.0,-999,-99.99,,,-99.99,,2013-03-13 02:04:00,
2013-03-13 02:11:00,27.3,-99.9,28.82,ENE,67,4.0,-999.0,-999,-99.99,,,-99.99,,2013-03-13 02:11:00,
2013-03-13 02:17:00,27.0,-99.9,28.81,East,90,5.0,-999.0,-999,-99.99,,,-99.99,,2013-03-13 02:17:00,
2013-03-13 02:23:00,27.2,-99.9,28.81,ENE,67,5.0,-999.0,-999,-99.99,,,-99.99,,2013-03-13 02:23:00,
2013-03-13 02:29:00,27.3,-99.9,28.81,ENE,67,8.0,-999.0,-999,-99.99,,,-99.99,,2013-03-13 02:29:00,
2013-03-13 02:36:00,27.6,-99.9,28.81,NE,45,6.0,-999.0,-999,-99.99,,,-99.99,,2013-03-13 02:36:00,
2013-03-13 02:42:00,27.8,-99.9,28.81,ESE,112,7.0,-999.0,-999,-99.99,,,-99.99,,2013-03-13 02:42:00,
2013-03-13 02:49:00,28.1,-99.9,28.81,ESE,112,4.0,-999.0,-999,-99.99,,,-99.99,,2013-03-13 02:49:00,
2013-03-13 02:55:00,28.2,-99.9,28.81,East,90,5.0,-999.0,-999,-99.99,,,-99.99,,2013-03-13 02:55:00,
2013-03-13 03:01:00,28.3,-99.9,28.81,ESE,112,4.0,-999.0,-999,-99.99,,,-99.99,,2013-03-13 03:01:00,
2013-03-13 03:08:00,28.4,-99.9,28.80,South,180,8.0,-999.0,-999,-99.99,,,-99.99,,2013-03-13 03:08:00,
2013-03-13 03:14:00,28.4,-99.9,28.80,SE,135,6.0,-999.0,-999,-99.99,,,-99.99,,2013-03-13 03:14:00,
2013-03-13 03:20:00,28.4,-99.9,28.80,SE,135,5.0,-999.0,-999,-99.99,,,-99.99,,2013-03-13 03:20:00,
2013-03-13 03:26:00,28.4,-99.9,28.80,ESE,112,7.0,-999.0,-999,-99.99,,,-99.99,,2013-03-13 03:26:00,
2013-03-13 03:33:00,28.7,-99.9,28.80,ENE,67,4.0,-999.0,-999,-99.99,,,-99.99,,2013-03-13 03:33:00,
2013-03-13 03:39:00,28.6,-99.9,28.80,SE,135,3.0,-999.0,-999,-99.99,,,-99.99,,2013-03-13 03:39:00,
2013-03-13 03:45:00,28.5,-99.9,28.80,East,90,4.0,-999.0,-999,-99.99,,,-99.99,,2013-03-13 03:45:00,
2013-03-13 03:51:00,28.5,-99.9,28.80,North,0,3.0,-999.0,-999,-99.99,,,-99.99,,2013-03-13 03:51:00,
2013-03-13 03:58:00,28.6,-99.9,28.80,East,90,7.0,-999.0,-999,-99.99,,,-99.99,,2013-03-13 03:58:00,
2013-03-13 04:00:00,28.7,-99.9,28.80,NE,45,6.0,-999.0,-999,-99.99,,,-99.99,,2013-03-13 04:00:00,
2013-03-13 04:02:00,28.9,-99.9,28.80,ENE,67,6.0,-999.0,-999,-99.99,,,-99.99,,2013-03-13 04:02:00,
2013-03-13 04:08:00,29.0,-99.9,28.80,ESE,112,7.0,-999.0,-999,-99.99,,,-99.99,,2013-03-13 04:08:00,
2013-03-13 04:12:00,29.0,-99.9,28.80,NE,45,6.0,-999.0,-999,-99.99,,,-99.99,,2013-03-13 04:12:00,
2013-03-13 04:18:00,28.9,-99.9,28.80,NNW,337,-999.0,-999.0,-999,-99.99,,,-99.99,,2013-03-13 04:18:00,
2013-03-13 04:23:00,28.6,-99.9,28.79,NE,45,6.0,-999.0,-999,-99.99,,,-99.99,,2013-03-13 04:23:00,
2013-03-13 04:29:00,28.5,-99.9,28.80,East,90,11.0,-999.0,-999,-99.99,,,-99.99,,2013-03-13 04:29:00,
2013-03-13 04:35:00,28.2,-99.9,28.79,East,90,4.0,-999.0,-999,-99.99,,,-99.99,,2013-03-13 04:35:00,
2013-03-13 04:41:00,28.0,-99.9,28.79,NE,45,5.0,-999.0,-999,-99.99,,,-99.99,,2013-03-13 04:41:00,
2013-03-13 04:48:00,27.8,-99.9,28.80,ENE,67,6.0,-999.0,-999,-99.99,,,-99.99,,2013-03-13 04:48:00,
2013-03-13 04:54:00,28.0,-99.9,28.80,ENE,67,5.0,-999.0,-999,-99.99,,,-99.99,,2013-03-13 04:54:00,
2013-03-13 05:01:00,28.0,-99.9,28.80,ENE,67,5.0,-999.0,-999,-99.99,,,-99.99,,2013-03-13 05:01:00,
2013-03-13 05:07:00,27.7,-99.9,28.80,East,90,5.0,-999.0,-999,-99.99,,,-99.99,,2013-03-13 05:07:00,
2013-03-13 05:13:00,27.4,-99.9,28.80,East,90,4.0,-999.0,-999,-99.99,,,-99.99,,2013-03-13 05:13:00,
2013-03-13 05:20:00,27.2,-99.9,28.80,East,90,2.0,-999.0,-999,-99.99,,,-99.99,,2013-03-13 05:20:00,
2013-03-13 05:25:00,27.0,-99.9,28.80,SE,135,4.0,-999.0,-999,-99.99,,,-99.99,,2013-03-13 05:25:00,
2013-03-13 05:33:00,27.2,-99.9,28.80,ENE,67,3.0,-999.0,-999,-99.99,,,-99.99,,2013-03-13 05:33:00,
2013-03-13 05:39:00,27.5,-99.9,28.80,East,90,5.0,-999.0,-999,-99.99,,,-99.99,,2013-03-13 05:39:00,
2013-03-13 05:46:00,27.5,-99.9,28.80,ENE,67,4.0,-999.0,-999,-99.99,,,-99.99,,2013-03-13 05:46:00,
2013-03-13 05:52:00,27.7,-99.9,28.80,ENE,67,5.0,-999.0,-999,-99.99,,,-99.99,,2013-03-13 05:52:00,
2013-03-13 05:58:00,27.5,-99.9,28.80,ENE,67,3.0,-999.0,-999,-99.99,,,-99.99,,2013-03-13 05:58:00,
2013-03-13 06:05:00,27.4,-99.9,28.80,ESE,112,2.0,-999.0,-999,-99.99,,,-99.99,,2013-03-13 06:05:00,
2013-03-13 06:11:00,27.4,-99.9,28.81,NE,45,3.0,-999.0,-999,-99.99,,,-99.99,,2013-03-13 06:11:00,
2013-03-13 06:17:00,27.5,-99.9,28.80,East,90,5.0,-999.0,-999,-99.99,,,-99.99,,2013-03-13 06:17:00,
2013-03-13 06:23:00,27.3,-99.9,28.81,ENE,67,1.0,-999.0,-999,-99.99,,,-99.99,,2013-03-13 06:23:00,
2013-03-13 06:30:00,26.7,-99.9,28.81,East,90,3.0,-999.0,-999,-99.99,,,-99.99,,2013-03-13 06:30:00,
2013-03-13 06:36:00,26.3,-99.9,28.81,ESE,112,7.0,-999.0,-999,-99.99,,,-99.99,,2013-03-13 06:36:00,
2013-03-13 06:43:00,26.3,-99.9,28.81,ENE,67,6.0,-999.0,-999,-99.99,,,-99.99,,2013-03-13 06:43:00,
2013-03-13 06:49:00,26.5,-99.9,28.81,ENE,67,5.0,-999.0,-999,-99.99,,,-99.99,,2013-03-13 06:49:00,
2013-03-13 06:55:00,26.6,-99.9,28.81,NNW,337,3.0,-999.0,-999,-99.99,,,-99.99,,2013-03-13 06:55:00,
2013-03-13 07:02:00,26.7,-99.9,28.81,NNW,337,3.0,-999.0,-999,-99.99,,,-99.99,,2013-03-13 07:02:00,
2013-03-13 07:08:00,28.0,-99.9,28.81,East,90,3.0,-999.0,-999,-99.99,,,-99.99,,2013-03-13 07:08:00,
2013-03-13 07:14:00,29.4,-99.9,28.82,ESE,112,5.0,-999.0,-999,-99.99,,,-99.99,,2013-03-13 07:14:00,
2013-03-13 07:20:00,30.6,-99.9,28.82,ENE,67,5.0,-999.0,-999,-99.99,,,-99.99,,2013-03-13 07:20:00,
2013-03-13 07:27:00,31.7,-99.9,28.82,ESE,112,6.0,-999.0,-999,-99.99,,,-99.99,,2013-03-13 07:27:00,
2013-03-13 07:33:00,32.2,-99.9,28.82,ESE,112,6.0,-999.0,-999,-99.99,,,-99.99,,2013-03-13 07:33:00,
2013-03-13 07:39:00,33.0,-99.9,28.82,ENE,67,5.0,-999.0,-999,-99.99,,,-99.99,,2013-03-13 07:39:00,
2013-03-13 07:45:00,34.4,-99.9,28.82,ESE,112,6.0,-999.0,-999,-99.99,,,-99.99,,2013-03-13 07:45:00,
2013-03-13 07:51:00,35.4,-99.9,28.82,SE,135,6.0,-999.0,-999,-99.99,,,-99.99,,2013-03-13 07:51:00,
2013-03-13 07:57:00,35.8,-99.9,28.82,ENE,67,-999.0,-999.0,-999,-99.99,,,-99.99,,2013-03-13 07:57:00,
2013-03-13 08:03:00,36.5,-99.9,28.82,NE,45,7.0,-999.0,-999,-99.99,,,-99.99,,2013-03-13 08:03:00,
2013-03-13 08:09:00,36.6,-99.9,28.82,ESE,112,5.0,-999.0,-999,-99.99,,,-99.99,,2013-03-13 08:09:00,
2013-03-13 08:15:00,36.2,-99.9,28.82,NE,45,5.0,-999.0,-999,-99.99,,,-99.99,,2013-03-13 08:15:00,
2013-03-13 08:22:00,36.0,-99.9,28.82,East,90,6.0,-999.0,-999,-99.99,,,-99.99,,2013-03-13 08:22:00,
2013-03-13 08:28:00,35.9,-99.9,28.82,North,0,6.0,-999.0,-999,-99.99,,,-99.99,,2013-03-13 08:28:00,
2013-03-13 08:34:00,37.3,-99.9,28.82,ENE,67,6.0,-999.0,-999,-99.99,,,-99.99,,2013-03-13 08:34:00,
2013-03-13 08:41:00,38.9,-99.9,28.82,NE,45,5.0,-999.0,-999,-99.99,,,-99.99,,2013-03-13 08:41:00,
2013-03-13 08:49:00,40.3,-99.9,28.82,ENE,67,10.0,-999.0,-999,-99.99,,,-99.99,,2013-03-13 08:49:00,
2013-03-13 08:55:00,41.0,-99.9,28.82,ENE,67,6.0,-999.0,-999,-99.99,,,-99.99,,2013-03-13 08:55:00,
2013-03-13 09:02:00,41.9,-99.9,28.82,WSW,247,5.0,-999.0,-999,-99.99,,,-99.99,,2013-03-13 09:02:00,
2013-03-13 09:08:00,42.6,-99.9,28.83,SE,135,4.0,-999.0,-999,-99.99,,,-99.99,,2013-03-13 09:08:00,
2013-03-13 09:14:00,43.2,-99.9,28.83,North,0,5.0,-999.0,-999,-99.99,,,-99.99,,2013-03-13 09:14:00,
2013-03-13 09:20:00,42.8,-99.9,28.83,NNE,22,6.0,-999.0,-999,-99.99,,,-99.99,,2013-03-13 09:20:00,
2013-03-13 09:28:00,42.7,-99.9,28.83,ENE,67,-999.0,-999.0,-999,-99.99,,,-99.99,,2013-03-13 09:28:00,
2013-03-13 09:34:00,42.3,-99.9,28.83,NE,45,10.0,-999.0,-999,-99.99,,,-99.99,,2013-03-13 09:34:00,
2013-03-13 09:40:00,41.7,-99.9,28.83,SE,135,10.0,-999.0,-999,-99.99,,,-99.99,,2013-03-13 09:40:00,
2013-03-13 09:48:00,43.0,-99.9,28.84,NE,45,10.0,-999.0,-999,-99.99,,,-99.99,,2013-03-13 09:48:00,
2013-03-13 09:54:00,43.6,-99.9,28.84,NE,45,8.0,-999.0,-999,-99.99,,,-99.99,,2013-03-13 09:54:00,
2013-03-13 10:00:00,44.0,-99.9,28.84,East,90,9.0,-999.0,-999,-99.99,,,-99.99,,2013-03-13 10:00:00,
2013-03-13 10:07:00,44.6,-99.9,28.84,ENE,67,10.0,-999.0,-999,-99.99,,,-99.99,,2013-03-13 10:07:00,
2013-03-13 10:13:00,45.0,-99.9,28.84,NE,45,9.0,-999.0,-999,-99.99,,,-99.99,,2013-03-13 10:13:00,
2013-03-13 10:19:00,44.8,-99.9,28.84,NE,45,8.0,-999.0,-999,-99.99,,,-99.99,,2013-03-13 10:19:00,
2013-03-13 10:25:00,45.0,-99.9,28.84,NE,45,6.0,-999.0,-999,-99.99,,,-99.99,,2013-03-13 10:25:00,
2013-03-13 10:32:00,45.8,-99.9,28.84,ENE,67,8.0,-999.0,-999,-99.99,,,-99.99,,2013-03-13 10:32:00,
2013-03-13 10:38:00,46.1,-99.9,28.84,SE,135,7.0,-999.0,-999,-99.99,,,-99.99,,2013-03-13 10:38:00,
2013-03-13 10:44:00,47.0,-99.9,28.84,ENE,67,9.0,-999.0,-999,-99.99,,,-99.99,,2013-03-13 10:44:00,
2013-03-13 10:51:00,47.1,-99.9,28.84,ENE,67,9.0,-999.0,-999,-99.99,,,-99.99,,2013-03-13 10:51:00,
2013-03-13 10:57:00,47.5,-99.9,28.84,ENE,67,9.0,-999.0,-999,-99.99,,,-99.99,,2013-03-13 10:57:00,
2013-03-13 11:03:00,47.3,-99.9,28.84,East,90,9.0,-999.0,-999,-99.99,,,-99.99,,2013-03-13 11:03:00,
2013-03-13 11:10:00,46.8,-99.9,28.84,ESE,112,9.0,-999.0,-999,-99.99,,,-99.99,,2013-03-13 11:10:00,
2013-03-13 11:16:00,46.6,-99.9,28.84,NNE,22,6.0,-999.0,-999,-99.99,,,-99.99,,2013-03-13 11:16:00,
2013-03-13 11:22:00,47.5,-99.9,28.84,ENE,67,5.0,-999.0,-999,-99.99,,,-99.99,,2013-03-13 11:22:00,
2013-03-13 11:29:00,48.7,-99.9,28.84,ENE,67,7.0,-999.0,-999,-99.99,,,-99.99,,2013-03-13 11:29:00,
2013-03-13 11:35:00,48.9,-99.9,28.84,NNW,337,8.0,-999.0,-999,-99.99,,,-99.99,,2013-03-13 11:35:00,
2013-03-13 11:42:00,48.9,-99.9,28.84,ENE,67,8.0,-999.0,-999,-99.99,,,-99.99,,2013-03-13 11:42:00,
2013-03-13 11:48:00,49.2,-99.9,28.84,SE,135,13.0,-999.0,-999,-99.99,,,-99.99,,2013-03-13 11:48:00,
2013-03-13 11:54:00,49.3,-99.9,28.84,East,90,8.0,-999.0,-999,-99.99,,,-99.99,,2013-03-13 11:54:00,
2013-03-13 12:01:00,48.7,-99.9,28.85,NE,45,8.0,-999.0,-999,-99.99,,,-99.99,,2013-03-13 12:01:00,
2013-03-13 12:06:00,47.3,-99.9,28.85,East,90,-999.0,-999.0,-999,-99.99,,,-99.99,,2013-03-13 12:06:00,
2013-03-13 12:12:00,47.4,-99.9,28.85,ENE,67,10.0,-999.0,-999,-99.99,,,-99.99,,2013-03-13 12:12:00,
2013-03-13 12:18:00,47.3,-99.9,28.85,ENE,67,5.0,-999.0,-999,-99.99,,,-99.99,,2013-03-13 12:18:00,
2013-03-13 12:24:00,47.3,-99.9,28.85,ENE,67,9.0,-999.0,-999,-99.99,,,-99.99,,2013-03-13 12:24:00,
2013-03-13 12:31:00,46.7,-99.9,28.85,North,0,7.0,-999.0,-999,-99.99,,,-99.99,,2013-03-13 12:31:00,
2013-03-13 12:37:00,47.6,-99.9,28.85,SSE,157,8.0,-999.0,-999,-99.99,,,-99.99,,2013-03-13 12:37:00,
2013-03-13 12:43:00,48.1,-99.9,28.85,North,0,9.0,-999.0,-999,-99.99,,,-99.99,,2013-03-13 12:43:00,
2013-03-13 12:50:00,48.9,-99.9,28.85,ENE,67,12.0,-999.0,-999,-99.99,,,-99.99,,2013-03-13 12:50:00,
2013-03-13 12:56:00,47.6,-99.9,28.84,SE,135,7.0,-999.0,-999,-99.99,,,-99.99,,2013-03-13 12:56:00,
2013-03-13 13:02:00,47.4,-99.9,28.85,NE,45,8.0,-999.0,-999,-99.99,,,-99.99,,2013-03-13 13:02:00,
2013-03-13 13:08:00,50.2,-99.9,28.84,WNW,292,4.0,-999.0,-999,-99.99,,,-99.99,,2013-03-13 13:08:00,
2013-03-13 13:15:00,50.1,-99.9,28.85,NE,45,8.0,-999.0,-999,-99.99,,,-99.99,,2013-03-13 13:15:00,
2013-03-13 13:20:00,48.5,-99.9,28.85,ENE,67,9.0,-999.0,-999,-99.99,,,-99.99,,2013-03-13 13:20:00,
2013-03-13 13:26:00,48.7,-99.9,28.84,East,90,9.0,-999.0,-999,-99.99,,,-99.99,,2013-03-13 13:26:00,
2013-03-13 13:32:00,49.0,-99.9,28.84,ESE,112,10.0,-999.0,-999,-99.99,,,-99.99,,2013-03-13 13:32:00,
2013-03-13 13:38:00,49.3,-99.9,28.85,East,90,12.0,-999.0,-999,-99.99,,,-99.99,,2013-03-13 13:38:00,
2013-03-13 13:45:00,50.0,-99.9,28.85,ENE,67,5.0,-999.0,-999,-99.99,,,-99.99,,2013-03-13 13:45:00,
2013-03-13 13:53:00,51.5,-99.9,28.84,ESE,112,8.0,-999.0,-999,-99.99,,,-99.99,,2013-03-13 13:53:00,
2013-03-13 13:59:00,48.9,-99.9,28.85,ENE,67,7.0,-999.0,-999,-99.99,,,-99.99,,2013-03-13 13:59:00,
2013-03-13 14:06:00,46.3,-99.9,28.84,ESE,112,4.0,-999.0,-999,-99.99,,,-99.99,,2013-03-13 14:06:00,
2013-03-13 14:12:00,44.8,-99.9,28.85,NNE,22,6.0,-999.0,-999,-99.99,,,-99.99,,2013-03-13 14:12:00,
2013-03-13 14:18:00,42.9,-99.9,28.84,ENE,67,5.0,-999.0,-999,-99.99,,,-99.99,,2013-03-13 14:18:00,
2013-03-13 14:24:00,42.1,-99.9,28.85,East,90,6.0,-999.0,-999,-99.99,,,-99.99,,2013-03-13 14:24:00,
2013-03-13 14:31:00,43.8,-99.9,28.85,ENE,67,4.0,-999.0,-999,-99.99,,,-99.99,,2013-03-13 14:31:00,
2013-03-13 14:37:00,42.6,-99.9,28.85,ENE,67,5.0,-999.0,-999,-99.99,,,-99.99,,2013-03-13 14:37:00,
2013-03-13 14:44:00,43.5,-99.9,28.85,ENE,67,4.0,-999.0,-999,-99.99,,,-99.99,,2013-03-13 14:44:00,
2013-03-13 14:50:00,45.2,-99.9,28.85,NE,45,8.0,-999.0,-999,-99.99,,,-99.99,,2013-03-13 14:50:00,
2013-03-13 14:56:00,43.6,-99.9,28.85,NNE,22,2.0,-999.0,-999,-99.99,,,-99.99,,2013-03-13 14:56:00,
2013-03-13 15:03:00,41.5,-99.9,28.85,ENE,67,4.0,-999.0,-999,-99.99,,,-99.99,,2013-03-13 15:03:00,
2013-03-13 15:09:00,39.9,-99.9,28.84,NE,45,7.0,-999.0,-999,-99.99,,,-99.99,,2013-03-13 15:09:00,
2013-03-13 15:15:00,40.4,-99.9,28.85,SSW,202,3.0,-999.0,-999,-99.99,,,-99.99,,2013-03-13 15:15:00,
2013-03-13 15:21:00,41.7,-99.9,28.85,North,0,4.0,-999.0,-999,-99.99,,,-99.99,,2013-03-13 15:21:00,
2013-03-13 15:29:00,40.9,-99.9,28.85,ENE,67,-999.0,-999.0,-999,-99.99,,,-99.99,,2013-03-13 15:29:00,
2013-03-13 15:35:00,40.3,-99.9,28.85,ESE,112,5.0,-999.0,-999,-99.99,,,-99.99,,2013-03-13 15:35:00,
2013-03-13 15:43:00,39.1,-99.9,28.85,NE,45,5.0,-999.0,-999,-99.99,,,-99.99,,2013-03-13 15:43:00,
2013-03-13 15:50:00,39.0,-99.9,28.85,East,90,3.0,-999.0,-999,-99.99,,,-99.99,,2013-03-13 15:50:00,
2013-03-13 15:56:00,39.0,-99.9,28.85,ENE,67,8.0,-999.0,-999,-99.99,,,-99.99,,2013-03-13 15:56:00,
2013-03-13 16:02:00,38.2,-99.9,28.85,ENE,67,8.0,-999.0,-999,-99.99,,,-99.99,,2013-03-13 16:02:00,
2013-03-13 16:08:00,37.7,-99.9,28.85,East,90,6.0,-999.0,-999,-99.99,,,-99.99,,2013-03-13 16:08:00,
2013-03-13 16:15:00,37.2,-99.9,28.86,East,90,6.0,-999.0,-999,-99.99,,,-99.99,,2013-03-13 16:15:00,
2013-03-13 16:23:00,36.2,-99.9,28.86,East,90,8.0,-999.0,-999,-99.99,,,-99.99,,2013-03-13 16:23:00,
2013-03-13 16:29:00,35.3,-99.9,28.86,NNE,22,7.0,-999.0,-999,-99.99,,,-99.99,,2013-03-13 16:29:00,
2013-03-13 16:36:00,34.5,-99.9,28.86,NNE,22,5.0,-999.0,-999,-99.99,,,-99.99,,2013-03-13 16:36:00,
2013-03-13 16:43:00,33.9,-99.9,28.86,NNE,22,-999.0,-999.0,-999,-99.99,,,-99.99,,2013-03-13 16:43:00,
2013-03-13 16:49:00,33.7,-99.9,28.87,NE,45,4.0,-999.0,-999,-99.99,,,-99.99,,2013-03-13 16:49:00,
2013-03-13 16:55:00,33.3,-99.9,28.87,NE,45,6.0,-999.0,-999,-99.99,,,-99.99,,2013-03-13 16:55:00,
2013-03-13 17:01:00,33.3,-99.9,28.87,ENE,67,5.0,-999.0,-999,-99.99,,,-99.99,,2013-03-13 17:01:00,
2013-03-13 17:08:00,33.7,-99.9,28.87,NE,45,5.0,-999.0,-999,-99.99,,,-99.99,,2013-03-13 17:08:00,
2013-03-13 17:14:00,33.8,-99.9,28.87,ENE,67,6.0,-999.0,-999,-99.99,,,-99.99,,2013-03-13 17:14:00,
2013-03-13 17:20:00,33.8,-99.9,28.87,East,90,6.0,-999.0,-999,-99.99,,,-99.99,,2013-03-13 17:20:00,
2013-03-13 17:26:00,33.7,-99.9,28.87,NE,45,5.0,-999.0,-999,-99.99,,,-99.99,,2013-03-13 17:26:00,
2013-03-13 17:33:00,33.5,-99.9,28.87,ENE,67,5.0,-999.0,-999,-99.99,,,-99.99,,2013-03-13 17:33:00,
2013-03-13 17:39:00,33.0,-99.9,28.88,NE,45,5.0,-999.0,-999,-99.99,,,-99.99,,2013-03-13 17:39:00,
2013-03-13 17:45:00,33.0,-99.9,28.88,ENE,67,5.0,-999.0,-999,-99.99,,,-99.99,,2013-03-13 17:45:00,
2013-03-13 17:52:00,33.1,-99.9,28.88,East,90,4.0,-999.0,-999,-99.99,,,-99.99,,2013-03-13 17:52:00,
2013-03-13 17:59:00,33.1,-99.9,28.88,NE,45,-999.0,-999.0,-999,-99.99,,,-99.99,,2013-03-13 17:59:00,
2013-03-13 18:04:00,33.0,-99.9,28.88,NNW,337,2.0,-999.0,-999,-99.99,,,-99.99,,2013-03-13 18:04:00,
2013-03-13 18:10:00,32.8,-99.9,28.88,NNE,22,3.0,-999.0,-999,-99.99,,,-99.99,,2013-03-13 18:10:00,
2013-03-13 18:16:00,32.3,-99.9,28.89,North,0,3.0,-999.0,-999,-99.99,,,-99.99,,2013-03-13 18:16:00,
2013-03-13 18:23:00,31.9,-99.9,28.89,NW,315,3.0,-999.0,-999,-99.99,,,-99.99,,2013-03-13 18:23:00,
2013-03-13 18:29:00,31.4,-99.9,28.89,North,0,7.0,-999.0,-999,-99.99,,,-99.99,,2013-03-13 18:29:00,
2013-03-13 18:35:00,30.9,-99.9,28.89,NNW,337,5.0,-999.0,-999,-99.99,,,-99.99,,2013-03-13 18:35:00,
2013-03-13 18:42:00,30.5,-99.9,28.89,NNE,22,10.0,-999.0,-999,-99.99,,,-99.99,,2013-03-13 18:42:00,
2013-03-13 18:48:00,29.5,-99.9,28.89,NNE,22,10.0,-999.0,-999,-99.99,,,-99.99,,2013-03-13 18:48:00,
2013-03-13 18:54:00,29.0,-99.9,28.89,NNW,337,6.0,-999.0,-999,-99.99,,,-99.99,,2013-03-13 18:54:00,
2013-03-13 19:00:00,28.7,-99.9,28.90,ESE,112,3.0,-999.0,-999,-99.99,,,-99.99,,2013-03-13 19:00:00,
2013-03-13 19:07:00,28.5,-99.9,28.90,ENE,67,5.0,-999.0,-999,-99.99,,,-99.99,,2013-03-13 19:07:00,
2013-03-13 19:13:00,28.7,-99.9,28.90,NE,45,5.0,-999.0,-999,-99.99,,,-99.99,,2013-03-13 19:13:00,
2013-03-13 19:19:00,28.9,-99.9,28.90,NNE,22,10.0,-999.0,-999,-99.99,,,-99.99,,2013-03-13 19:19:00,
2013-03-13 19:26:00,28.4,-99.9,28.90,NE,45,-999.0,-999.0,-999,-99.99,,,-99.99,,2013-03-13 19:26:00,
2013-03-13 19:32:00,28.3,-99.9,28.90,NE,45,9.0,-999.0,-999,-99.99,,,-99.99,,2013-03-13 19:32:00,
2013-03-13 19:38:00,28.0,-99.9,28.91,NNE,22,9.0,-999.0,-999,-99.99,,,-99.99,,2013-03-13 19:38:00,
2013-03-13 19:45:00,28.0,-99.9,28.91,NE,45,6.0,-999.0,-999,-99.99,,,-99.99,,2013-03-13 19:45:00,
2013-03-13 19:51:00,28.2,-99.9,28.91,NNW,337,10.0,-999.0,-999,-99.99,,,-99.99,,2013-03-13 19:51:00,
2013-03-13 19:57:00,28.7,-99.9,28.90,NNW,337,8.0,-999.0,-999,-99.99,,,-99.99,,2013-03-13 19:57:00,
2013-03-13 20:04:00,29.1,-99.9,28.90,ENE,67,8.0,-999.0,-999,-99.99,,,-99.99,,2013-03-13 20:04:00,
2013-03-13 20:10:00,29.0,-99.9,28.90,NNE,22,6.0,-999.0,-999,-99.99,,,-99.99,,2013-03-13 20:10:00,
2013-03-13 20:16:00,29.1,-99.9,28.90,NNE,22,8.0,-999.0,-999,-99.99,,,-99.99,,2013-03-13 20:16:00,
2013-03-13 20:22:00,29.2,-99.9,28.90,ENE,67,10.0,-999.0,-999,-99.99,,,-99.99,,2013-03-13 20:22:00,
2013-03-13 20:29:00,29.4,-99.9,28.90,NNE,22,10.0,-999.0,-999,-99.99,,,-99.99,,2013-03-13 20:29:00,
2013-03-13 20:35:00,29.3,-99.9,28.90,NNE,22,9.0,-999.0,-999,-99.99,,,-99.99,,2013-03-13 20:35:00,
2013-03-13 20:41:00,29.3,-99.9,28.90,North,0,7.0,-999.0,-999,-99.99,,,-99.99,,2013-03-13 20:41:00,
2013-03-13 20:47:00,29.4,-99.9,28.90,WNW,292,3.0,-999.0,-999,-99.99,,,-99.99,,2013-03-13 20:47:00,
2013-03-13 20:53:00,29.4,-99.9,28.90,NNE,22,4.0,-999.0,-999,-99.99,,,-99.99,,2013-03-13 20:53:00,
2013-03-13 21:00:00,29.1,-99.9,28.90,NE,45,8.0,-999.0,-999,-99.99,,,-99.99,,2013-03-13 21:00:00,
2013-03-13 21:06:00,28.4,-99.9,28.90,NNE,22,2.0,-999.0,-999,-99.99,,,-99.99,,2013-03-13 21:06:00,
2013-03-13 21:12:00,28.0,-99.9,28.90,NNE,22,7.0,-999.0,-999,-99.99,,,-99.99,,2013-03-13 21:12:00,
2013-03-13 21:19:00,27.6,-99.9,28.91,NNE,22,5.0,-999.0,-999,-99.99,,,-99.99,,2013-03-13 21:19:00,
2013-03-13 21:25:00,27.2,-99.9,28.91,NNW,337,4.0,-999.0,-999,-99.99,,,-99.99,,2013-03-13 21:25:00,
2013-03-13 21:31:00,27.0,-99.9,28.91,North,0,6.0,-999.0,-999,-99.99,,,-99.99,,2013-03-13 21:31:00,
2013-03-13 21:38:00,26.7,-99.9,28.91,NE,45,6.0,-999.0,-999,-99.99,,,-99.99,,2013-03-13 21:38:00,
2013-03-13 21:44:00,26.7,-99.9,28.91,NE,45,9.0,-999.0,-999,-99.99,,,-99.99,,2013-03-13 21:44:00,
2013-03-13 21:50:00,26.7,-99.9,28.91,NNE,22,3.0,-999.0,-999,-99.99,,,-99.99,,2013-03-13 21:50:00,
2013-03-13 21:56:00,26.5,-99.9,28.91,NW,315,5.0,-999.0,-999,-99.99,,,-99.99,,2013-03-13 21:56:00,
2013-03-13 22:03:00,26.1,-99.9,28.91,NW,315,4.0,-999.0,-999,-99.99,,,-99.99,,2013-03-13 22:03:00,
2013-03-13 22:09:00,26.0,-99.9,28.91,North,0,7.0,-999.0,-999,-99.99,,,-99.99,,2013-03-13 22:09:00,
2013-03-13 22:15:00,26.1,-99.9,28.91,NE,45,3.0,-999.0,-999,-99.99,,,-99.99,,2013-03-13 22:15:00,
2013-03-13 22:21:00,25.8,-99.9,28.91,NE,45,9.0,-999.0,-999,-99.99,,,-99.99,,2013-03-13 22:21:00,
2013-03-13 22:28:00,25.9,-99.9,28.91,North,0,6.0,-999.0,-999,-99.99,,,-99.99,,2013-03-13 22:28:00,
2013-03-13 22:34:00,26.0,-99.9,28.91,North,0,5.0,-999.0,-999,-99.99,,,-99.99,,2013-03-13 22:34:00,
2013-03-13 22:41:00,25.7,-99.9,28.91,NNW,337,-999.0,-999.0,-999,-99.99,,,-99.99,,2013-03-13 22:41:00,
2013-03-13 22:47:00,25.6,-99.9,28.91,NNW,337,5.0,-999.0,-999,-99.99,,,-99.99,,2013-03-13 22:47:00,
2013-03-13 22:54:00,25.2,-99.9,28.91,North,0,-999.0,-999.0,-999,-99.99,,,-99.99,,2013-03-13 22:54:00,
2013-03-13 23:00:00,24.9,-99.9,28.91,NE,45,5.0,-999.0,-999,-99.99,,,-99.99,,2013-03-13 23:00:00,
2013-03-13 23:08:00,24.9,-99.9,28.91,NE,45,-999.0,-999.0,-999,-99.99,,,-99.99,,2013-03-13 23:08:00,
2013-03-13 23:14:00,25.0,-99.9,28.91,NW,315,4.0,-999.0,-999,-99.99,,,-99.99,,2013-03-13 23:14:00,
2013-03-13 23:20:00,25.1,-99.9,28.91,NNE,22,4.0,-999.0,-999,-99.99,,,-99.99,,2013-03-13 23:20:00,
2013-03-13 23:26:00,25.2,-99.9,28.91,NE,45,8.0,-999.0,-999,-99.99,,,-99.99,,2013-03-13 23:26:00,
2013-03-13 23:33:00,25.5,-99.9,28.91,NNW,337,4.0,-999.0,-999,-99.99,,,-99.99,,2013-03-13 23:33:00,
2013-03-13 23:39:00,25.5,-99.9,28.91,NNW,337,5.0,-999.0,-999,-99.99,,,-99.99,,2013-03-13 23:39:00,
2013-03-13 23:45:00,25.7,-99.9,28.91,NNW,337,5.0,-999.0,-999,-99.99,,,-99.99,,2013-03-13 23:45:00,
2013-03-13 23:51:00,26.1,-99.9,28.91,North,0,4.0,-999.0,-999,-99.99,,,-99.99,,2013-03-13 23:51:00,
2013-03-13 23:58:00,26.5,-99.9,28.91,NW,315,5.0,-999.0,-999,-99.99,,,-99.99,,2013-03-13 23:58:00,